�v������,���r���O(���x),�����t���O,���r���O(���x),�����t���O,��1(���x),�����t���O,�������x,�����t���O
8/1/2003 0:00,27.9,1,67.4,1,23.5,1,0,0
8/1/2003 0:15,27.8,1,67.3,1,23.5,1,0,0
8/1/2003 0:30,27.6,1,68.5,1,23.1,1,0,0
8/1/2003 0:45,28.4,1,67.2,1,23.6,1,0,0
8/1/2003 1:00,28.6,1,66.7,1,23.9,1,0,0
8/1/2003 1:15,28.7,1,66.2,1,24,1,0,0
8/1/2003 1:30,28.7,1,65.8,1,23.8,1,0,0
8/1/2003 1:45,28.8,1,65.9,1,23.4,1,0,0
8/1/2003 2:00,28.8,1,65.8,1,23.4,1,0,0
8/1/2003 2:15,28.8,1,65.8,1,23,1,0,0
8/1/2003 2:30,28.8,1,65.6,1,23.1,1,0,0
8/1/2003 2:45,28.7,1,65.6,1,24.2,1,0,0
8/1/2003 3:00,28.6,1,65.8,1,24.9,1,0,0
8/1/2003 3:15,28.5,1,65.8,1,25.3,1,0,0
8/1/2003 3:30,28.5,1,65.9,1,25.6,1,0,0
8/1/2003 3:45,28.5,1,66,1,25.8,1,0,0
8/1/2003 4:00,28.4,1,66.1,1,25.9,1,0,0
8/1/2003 4:15,28.4,1,66.2,1,25.9,1,0,0
8/1/2003 4:30,28.4,1,66.2,1,26,1,0,0
8/1/2003 4:45,28.4,1,66.3,1,26,1,0,0
8/1/2003 5:00,28.4,1,66.2,1,26.1,1,0,0
8/1/2003 5:15,28.3,1,66.3,1,26.1,1,0,0
8/1/2003 5:30,28.3,1,66.4,1,26.1,1,0,0
8/1/2003 5:45,28.3,1,66.3,1,26.2,1,0,0
8/1/2003 6:00,28.3,1,65.9,1,26.2,1,0,0
8/1/2003 6:15,28.3,1,65.6,1,26.3,1,0,0
8/1/2003 6:30,28.3,1,65.8,1,26.3,1,0,0
8/1/2003 6:45,28.3,1,65.7,1,26.3,1,0,0
8/1/2003 7:00,28.3,1,65.4,1,26.3,1,0,0
8/1/2003 7:15,28.3,1,65.3,1,26.4,1,0,0
8/1/2003 7:30,28.1,1,65.2,1,25.9,1,0,0
8/1/2003 7:45,27.1,1,66.3,1,23.4,1,0,0
8/1/2003 8:00,26.3,1,68.4,1,22.8,1,0,0
8/1/2003 8:15,25.9,1,69.8,1,22.1,1,0,0
8/1/2003 8:30,25.5,1,71.4,1,21.9,1,0,0
8/1/2003 8:45,25.7,1,71.3,1,21.9,1,0,0
8/1/2003 9:00,25.5,1,71.6,1,22,1,0,0
8/1/2003 9:15,26.1,1,70.3,1,21.9,1,0,0
8/1/2003 9:30,26.8,1,68.4,1,22.4,1,0,0
8/1/2003 9:45,27,1,67.9,1,23.2,1,0,0
8/1/2003 10:00,27.2,1,67.9,1,23.7,1,0,0
8/1/2003 10:15,27.3,1,68.3,1,24.2,1,0,0
8/1/2003 10:30,27.3,1,68.6,1,24.6,1,0,0
8/1/2003 10:45,27.3,1,68.3,1,25,1,0,0
8/1/2003 11:00,27.4,1,67.9,1,25.3,1,0,0
8/1/2003 11:15,27.4,1,68.3,1,25.6,1,0,0
8/1/2003 11:30,27,1,68.9,1,25.8,1,0,0
8/1/2003 11:45,27,1,69.4,1,25.8,1,0,0
8/1/2003 12:00,27.2,1,68.9,1,26,1,0,0
8/1/2003 12:15,27.1,1,68.9,1,26.1,1,0,0
8/1/2003 12:30,27.2,1,68.8,1,26.1,1,0,0
8/1/2003 12:45,27,1,69.4,1,26.2,1,0,0
8/1/2003 13:00,27.1,1,69.9,1,25.8,1,0,0
8/1/2003 13:15,27.5,1,69.1,1,25.9,1,0,0
8/1/2003 13:30,27.8,1,68.7,1,26.2,1,0,0
8/1/2003 13:45,27.7,1,68.9,1,26.3,1,0,0
8/1/2003 14:00,27.7,1,69.2,1,26.3,1,0,0
8/1/2003 14:15,27.7,1,70.2,1,26.2,1,0,0
8/1/2003 14:30,27.7,1,70.6,1,26.1,1,0,0
8/1/2003 14:45,27.7,1,70.8,1,26.3,1,0,0
8/1/2003 15:00,27.6,1,71.4,1,26.2,1,0,0
8/1/2003 15:15,27.5,1,72,1,26,1,0,0
8/1/2003 15:30,27.6,1,71.9,1,25.9,1,0,0
8/1/2003 15:45,27.6,1,72.5,1,25.8,1,0,0
8/1/2003 16:00,27.5,1,73.4,1,25.3,1,0,0
8/1/2003 16:15,27.7,1,72.6,1,25.2,1,0,0
8/1/2003 16:30,27.5,1,73.9,1,24.7,1,0,0
8/1/2003 16:45,27.2,1,74.3,1,24.3,1,0,0
8/1/2003 17:00,27,1,75.3,1,24,1,0,0
8/1/2003 17:15,27.2,1,74.7,1,23.6,1,0,0
8/1/2003 17:30,27.4,1,74.1,1,23.2,1,0,0
8/1/2003 17:45,27.3,1,73.9,1,23.1,1,0,0
8/1/2003 18:00,26.9,1,74.2,1,22.9,1,0,0
8/1/2003 18:15,27.4,1,74.5,1,23.2,1,0,0
8/1/2003 18:30,27.4,1,73.5,1,23.1,1,0,0
8/1/2003 18:45,27.3,1,73.3,1,23,1,0,0
8/1/2003 19:00,27.4,1,72.8,1,23,1,0,0
8/1/2003 19:15,27.5,1,72.9,1,23.2,1,0,0
8/1/2003 19:30,27.6,1,72.1,1,23.2,1,0,0
8/1/2003 19:45,27.7,1,71.8,1,23.6,1,0,0
8/1/2003 20:00,27.7,1,71.4,1,23.9,1,0,0
8/1/2003 20:15,28.1,1,70.5,1,24,1,0,0
8/1/2003 20:30,28.1,1,70,1,24,1,0,0
8/1/2003 20:45,28.1,1,69.6,1,24.2,1,0,0
8/1/2003 21:00,28.1,1,69.6,1,24.5,1,0,0
8/1/2003 21:15,28.1,1,69.3,1,24.5,1,0,0
8/1/2003 21:30,28.1,1,69.2,1,24.4,1,0,0
8/1/2003 21:45,28.1,1,69,1,24.4,1,0,0
8/1/2003 22:00,28.2,1,68.8,1,24.3,1,0,0
8/1/2003 22:15,28.2,1,68.9,1,24.3,1,0,0
8/1/2003 22:30,28.2,1,69.6,1,24.3,1,0,0
8/1/2003 22:45,28.3,1,69.2,1,24.4,1,0,0
8/1/2003 23:00,28.5,1,68.6,1,24.7,1,0,0
8/1/2003 23:15,28.6,1,68,1,24.8,1,0,0
8/1/2003 23:30,28.6,1,67.6,1,24.8,1,0,0
8/1/2003 23:45,28.6,1,67.4,1,24.9,1,0,0
8/2/2003 0:00,28.7,1,67.3,1,24.9,1,0,0
8/2/2003 0:15,28.7,1,67.4,1,24.8,1,0,0
8/2/2003 0:30,28.7,1,67.2,1,24.7,1,0,0
8/2/2003 0:45,28.5,1,67.6,1,24.7,1,0,0
8/2/2003 1:00,28.6,1,67.4,1,24.5,1,0,0
8/2/2003 1:15,28.6,1,67.1,1,24.5,1,0,0
8/2/2003 1:30,28.6,1,67.1,1,24.6,1,0,0
8/2/2003 1:45,28.5,1,67.1,1,24.6,1,0,0
8/2/2003 2:00,28.5,1,67,1,24.6,1,0,0
8/2/2003 2:15,28.5,1,67.1,1,24.7,1,0,0
8/2/2003 2:30,28.5,1,67,1,24.6,1,0,0
8/2/2003 2:45,28.5,1,66.9,1,24.5,1,0,0
8/2/2003 3:00,28.5,1,67,1,24.5,1,0,0
8/2/2003 3:15,28.5,1,67.2,1,24.4,1,0,0
8/2/2003 3:30,28.4,1,67.2,1,24.1,1,0,0
8/2/2003 3:45,28.4,1,67.2,1,24,1,0,0
8/2/2003 4:00,28.4,1,67.3,1,24.2,1,0,0
8/2/2003 4:15,28.4,1,67.2,1,24.3,1,0,0
8/2/2003 4:30,28.3,1,67.3,1,24.2,1,0,0
8/2/2003 4:45,28.2,1,67.5,1,24.1,1,0,0
8/2/2003 5:00,28.2,1,67.5,1,24.3,1,0,0
8/2/2003 5:15,28.1,1,67.7,1,24.5,1,0,0
8/2/2003 5:30,28,1,67.9,1,24.5,1,0,0
8/2/2003 5:45,28,1,67.9,1,24.4,1,0,0
8/2/2003 6:00,28,1,68.2,1,24.8,1,0,0
8/2/2003 6:15,27.9,1,68.3,1,25.1,1,0,0
8/2/2003 6:30,27.9,1,68.5,1,25.1,1,0,0
8/2/2003 6:45,27.9,1,68.7,1,25.8,1,0,0
8/2/2003 7:00,28,1,69.1,1,26.4,1,0,0
8/2/2003 7:15,28,1,69.4,1,26.3,1,0,0
8/2/2003 7:30,28,1,69.8,1,26,1,0,0
8/2/2003 7:45,28.1,1,69.9,1,26,1,0,0
8/2/2003 8:00,28.1,1,69.9,1,26.4,1,0,0
8/2/2003 8:15,28.2,1,70.3,1,26.5,1,0,0
8/2/2003 8:30,28.2,1,70.6,1,26.8,1,0,0
8/2/2003 8:45,28.3,1,70.6,1,27,1,0,0
8/2/2003 9:00,28.2,1,71.7,1,27.5,1,0,0
8/2/2003 9:15,28.2,1,73.2,1,27.7,1,0,0
8/2/2003 9:30,28.2,1,74,1,27.8,1,0,0
8/2/2003 9:45,28.3,1,73.9,1,28,1,0,0
8/2/2003 10:00,28.5,1,74,1,28,1,0,0
8/2/2003 10:15,28.7,1,73.3,1,28,1,0,0
8/2/2003 10:30,28.7,1,73.2,1,28.1,1,0,0
8/2/2003 10:45,29,1,72.7,1,28.2,1,0,0
8/2/2003 11:00,29,1,72.8,1,28.3,1,0,0
8/2/2003 11:15,29,1,72.5,1,28.3,1,0,0
8/2/2003 11:30,29.1,1,72.2,1,28.4,1,0,0
8/2/2003 11:45,29.3,1,71.5,1,28.5,1,0,0
8/2/2003 12:00,29.5,1,71.1,1,28.6,1,0,0
8/2/2003 12:15,29.6,1,70.1,1,28.8,1,0,0
8/2/2003 12:30,29.7,1,70,1,28.9,1,0,0
8/2/2003 12:45,29.8,1,68.9,1,29.1,1,0,0
8/2/2003 13:00,29.9,1,68.8,1,29.3,1,0,0
8/2/2003 13:15,30.3,1,67,1,29.5,1,0,0
8/2/2003 13:30,30.1,1,68.4,1,29.5,1,0,0
8/2/2003 13:45,30.2,1,68.1,1,29.6,1,0,0
8/2/2003 14:00,30.3,1,68.1,1,29.7,1,0,0
8/2/2003 14:15,30.3,1,68.7,1,29.7,1,0,0
8/2/2003 14:30,30.4,1,67.5,1,29.7,1,0,0
8/2/2003 14:45,30.3,1,66.8,1,29.8,1,0,0
8/2/2003 15:00,30.3,1,67.6,1,29.9,1,0,0
8/2/2003 15:15,30.4,1,67.5,1,30,1,0,0
8/2/2003 15:30,30.4,1,67.9,1,30,1,0,0
8/2/2003 15:45,30.2,1,67.6,1,30,1,0,0
8/2/2003 16:00,30.2,1,66.9,1,30,1,0,0
8/2/2003 16:15,30.1,1,66.8,1,29.8,1,0,0
8/2/2003 16:30,30.1,1,65.8,1,29.8,1,0,0
8/2/2003 16:45,30.1,1,66.4,1,29.8,1,0,0
8/2/2003 17:00,30.2,1,67.4,1,29.9,1,0,0
8/2/2003 17:15,30.1,1,67.9,1,29.9,1,0,0
8/2/2003 17:30,30.2,1,68.2,1,29.8,1,0,0
8/2/2003 17:45,30.2,1,68.6,1,29.7,1,0,0
8/2/2003 18:00,30.2,1,68.8,1,29.6,1,0,0
8/2/2003 18:15,30.2,1,68.9,1,29.5,1,0,0
8/2/2003 18:30,30.1,1,68.9,1,29.4,1,0,0
8/2/2003 18:45,30.1,1,69,1,29.3,1,0,0
8/2/2003 19:00,30.1,1,69,1,29.1,1,0,0
8/2/2003 19:15,30.1,1,69.1,1,29.1,1,0,0
8/2/2003 19:30,30.1,1,69.1,1,29,1,0,0
8/2/2003 19:45,30.1,1,69.1,1,28.9,1,0,0
8/2/2003 20:00,30,1,69.2,1,28.9,1,0,0
8/2/2003 20:15,30,1,69.2,1,28.8,1,0,0
8/2/2003 20:30,30,1,69.3,1,28.8,1,0,0
8/2/2003 20:45,30,1,69.3,1,28.7,1,0,0
8/2/2003 21:00,30,1,69.4,1,28.7,1,0,0
8/2/2003 21:15,29.7,1,68.5,1,28.7,1,0,0
8/2/2003 21:30,29.1,1,58.3,1,28.6,1,0,0
8/2/2003 21:45,28.8,1,54.7,1,28.6,1,0,0
8/2/2003 22:00,28.3,1,51.2,1,27.9,1,0,0
8/2/2003 22:15,28.3,1,54.3,1,27.6,1,0,0
8/2/2003 22:30,28.1,1,50.9,1,27.4,1,0,0
8/2/2003 22:45,28,1,48.3,1,27.3,1,0,0
8/2/2003 23:00,27.8,1,47.5,1,27.2,1,0,0
8/2/2003 23:15,27.8,1,47,1,27.1,1,0,0
8/2/2003 23:30,27.7,1,46.8,1,27,1,0,0
8/2/2003 23:45,28.6,1,50.2,1,27,1,0,0
8/3/2003 0:00,29.1,1,54.1,1,27,1,0,0
8/3/2003 0:15,29.4,1,58,1,27.2,1,0,0
8/3/2003 0:30,29.5,1,59.3,1,27.2,1,0,0
8/3/2003 0:45,29.7,1,60.5,1,27.3,1,0,0
8/3/2003 1:00,29.8,1,61.7,1,27.4,1,0,0
8/3/2003 1:15,29.7,1,62.7,1,27.3,1,0,0
8/3/2003 1:30,29.7,1,63.8,1,27.1,1,0,0
8/3/2003 1:45,29.7,1,64.3,1,27,1,0,0
8/3/2003 2:00,29.6,1,64.9,1,27,1,0,0
8/3/2003 2:15,29.6,1,65.2,1,27.1,1,0,0
8/3/2003 2:30,29.6,1,65.5,1,27.3,1,0,0
8/3/2003 2:45,29.6,1,65.7,1,27.5,1,0,0
8/3/2003 3:00,29.6,1,66.1,1,27.7,1,0,0
8/3/2003 3:15,29.6,1,66.3,1,27.8,1,0,0
8/3/2003 3:30,29.5,1,66.5,1,27.9,1,0,0
8/3/2003 3:45,29.5,1,66.8,1,27.9,1,0,0
8/3/2003 4:00,29.5,1,67,1,28,1,0,0
8/3/2003 4:15,29.5,1,67.1,1,28,1,0,0
8/3/2003 4:30,29.5,1,67.3,1,28,1,0,0
8/3/2003 4:45,29.5,1,67.4,1,27.9,1,0,0
8/3/2003 5:00,29.5,1,67.6,1,27.6,1,0,0
8/3/2003 5:15,29.5,1,67.8,1,27.5,1,0,0
8/3/2003 5:30,29.5,1,67.9,1,27.6,1,0,0
8/3/2003 5:45,29.5,1,68.1,1,27.9,1,0,0
8/3/2003 6:00,29.5,1,68.3,1,28.4,1,0,0
8/3/2003 6:15,29.6,1,68.4,1,28.7,1,0,0
8/3/2003 6:30,29.6,1,68.5,1,29,1,0,0
8/3/2003 6:45,29.5,1,68.6,1,29.8,1,0,0
8/3/2003 7:00,29.6,1,69.3,1,30.1,1,0,0
8/3/2003 7:15,29.5,1,70.6,1,30,1,0,0
8/3/2003 7:30,29.5,1,70.5,1,30,1,0,0
8/3/2003 7:45,29.2,1,72.5,1,29.8,1,0,0
8/3/2003 8:00,28.9,1,73.9,1,29.4,1,0,0
8/3/2003 8:15,29,1,73.7,1,29.2,1,0,0
8/3/2003 8:30,29,1,74.1,1,29.3,1,0,0
8/3/2003 8:45,28.9,1,74.5,1,29.3,1,0,0
8/3/2003 9:00,29.1,1,74.1,1,29.3,1,0,0
8/3/2003 9:15,29.1,1,73.6,1,29.3,1,0,0
8/3/2003 9:30,29,1,74,1,29.4,1,0,0
8/3/2003 9:45,29,1,75,1,29.2,1,0,0
8/3/2003 10:00,29.2,1,74.9,1,29.4,1,0,0
8/3/2003 10:15,29.2,1,74.7,1,29.4,1,0,0
8/3/2003 10:30,29.4,1,73.7,1,29.5,1,0,0
8/3/2003 10:45,29.5,1,73.1,1,29.6,1,0,0
8/3/2003 11:00,29.7,1,71.5,1,29.6,1,0,0
8/3/2003 11:15,29.9,1,69.8,1,29.9,1,0,0
8/3/2003 11:30,29.9,1,69.5,1,30,1,0,0
8/3/2003 11:45,30,1,70.3,1,30.1,1,0,0
8/3/2003 12:00,30.1,1,68.5,1,30,1,0,0
8/3/2003 12:15,30.2,1,68.7,1,30.1,1,0,0
8/3/2003 12:30,30.3,1,68.4,1,30.2,1,0,0
8/3/2003 12:45,30.4,1,66.9,1,30.3,1,0,0
8/3/2003 13:00,30.4,1,66.8,1,30.2,1,0,0
8/3/2003 13:15,30.3,1,66.9,1,30.1,1,0,0
8/3/2003 13:30,30.3,1,67,1,30,1,0,0
8/3/2003 13:45,30.4,1,67.1,1,30.1,1,0,0
8/3/2003 14:00,30.6,1,66.7,1,30.3,1,0,0
8/3/2003 14:15,30.7,1,64.9,1,30.5,1,0,0
8/3/2003 14:30,30.7,1,64.1,1,30.5,1,0,0
8/3/2003 14:45,30.8,1,64.8,1,30.5,1,0,0
8/3/2003 15:00,30.8,1,64.4,1,30.7,1,0,0
8/3/2003 15:15,30.6,1,64.7,1,30.6,1,0,0
8/3/2003 15:30,30.4,1,65.7,1,30.4,1,0,0
8/3/2003 15:45,30.3,1,66.4,1,30.2,1,0,0
8/3/2003 16:00,30.2,1,67.1,1,30,1,0,0
8/3/2003 16:15,30.2,1,67.1,1,30,1,0,0
8/3/2003 16:30,30.2,1,67.4,1,30,1,0,0
8/3/2003 16:45,30.1,1,68,1,29.9,1,0,0
8/3/2003 17:00,30.1,1,67.9,1,29.9,1,0,0
8/3/2003 17:15,29.9,1,69,1,29.8,1,0,0
8/3/2003 17:30,29.7,1,69.6,1,29.6,1,0,0
8/3/2003 17:45,29.7,1,69.7,1,29.6,1,0,0
8/3/2003 18:00,29.8,1,69.1,1,29.6,1,0,0
8/3/2003 18:15,29.7,1,69,1,29.5,1,0,0
8/3/2003 18:30,29.5,1,69.2,1,29.4,1,0,0
8/3/2003 18:45,29.5,1,69.4,1,29.3,1,0,0
8/3/2003 19:00,29.5,1,70.1,1,29.3,1,0,0
8/3/2003 19:15,29.4,1,70.5,1,29.2,1,0,0
8/3/2003 19:30,29.3,1,70.9,1,29.2,1,0,0
8/3/2003 19:45,29.3,1,71.3,1,29.1,1,0,0
8/3/2003 20:00,29.3,1,71.4,1,29.1,1,0,0
8/3/2003 20:15,29.1,1,72.1,1,29,1,0,0
8/3/2003 20:30,29.3,1,66.7,1,28.5,1,0,0
8/3/2003 20:45,29,1,56.8,1,27.8,1,0,0
8/3/2003 21:00,28.7,1,51.8,1,27.4,1,0,0
8/3/2003 21:15,28.5,1,50.2,1,27.2,1,0,0
8/3/2003 21:30,28.5,1,48.7,1,27,1,0,0
8/3/2003 21:45,28.5,1,47.4,1,27,1,0,0
8/3/2003 22:00,28.4,1,45.9,1,26.9,1,0,0
8/3/2003 22:15,28.3,1,45.5,1,26.9,1,0,0
8/3/2003 22:30,28.3,1,45.4,1,26.8,1,0,0
8/3/2003 22:45,28.2,1,45.3,1,26.8,1,0,0
8/3/2003 23:00,28.4,1,45.9,1,26.7,1,0,0
8/3/2003 23:15,28.6,1,49.8,1,26.8,1,0,0
8/3/2003 23:30,28.3,1,48.3,1,26.8,1,0,0
8/3/2003 23:45,28.3,1,46.6,1,26.9,1,0,0
8/4/2003 0:00,28.1,1,44.8,1,26.9,1,0,0
8/4/2003 0:15,28.3,1,46.5,1,26.9,1,0,0
8/4/2003 0:30,28.9,1,50.4,1,26.9,1,0,0
8/4/2003 0:45,29.1,1,52.5,1,27,1,0,0
8/4/2003 1:00,29.3,1,54.6,1,26.9,1,0,0
8/4/2003 1:15,29.4,1,55.9,1,27,1,0,0
8/4/2003 1:30,29.5,1,57.3,1,27,1,0,0
8/4/2003 1:45,29.5,1,58.3,1,27,1,0,0
8/4/2003 2:00,29.6,1,59,1,27,1,0,0
8/4/2003 2:15,29.7,1,59.6,1,27,1,0,0
8/4/2003 2:30,29.7,1,60.3,1,27,1,0,0
8/4/2003 2:45,29.7,1,60.5,1,26.9,1,0,0
8/4/2003 3:00,29.8,1,61,1,26.9,1,0,0
8/4/2003 3:15,29.8,1,61.5,1,26.9,1,0,0
8/4/2003 3:30,29.8,1,62,1,27.3,1,0,0
8/4/2003 3:45,29.9,1,62.3,1,27.7,1,0,0
8/4/2003 4:00,29.9,1,62.6,1,28,1,0,0
8/4/2003 4:15,29.9,1,63,1,28.2,1,0,0
8/4/2003 4:30,30,1,63.3,1,28.3,1,0,0
8/4/2003 4:45,30,1,63.6,1,28.5,1,0,0
8/4/2003 5:00,30,1,63.8,1,28.6,1,0,0
8/4/2003 5:15,30.1,1,64,1,28.9,1,0,0
8/4/2003 5:30,30.1,1,64.3,1,28.6,1,0,0
8/4/2003 5:45,30.1,1,64.5,1,28.9,1,0,0
8/4/2003 6:00,30.1,1,64.7,1,30,1,0,0
8/4/2003 6:15,30.2,1,65,1,29.7,1,0,0
8/4/2003 6:30,29.9,1,69.3,1,29.4,1,0,0
8/4/2003 6:45,30,1,69.4,1,29.6,1,0,0
8/4/2003 7:00,30,1,69.2,1,29.3,1,0,0
8/4/2003 7:15,30.1,1,68.8,1,29.1,1,0,0
8/4/2003 7:30,30.1,1,69.2,1,29.5,1,0,0
8/4/2003 7:45,30.1,1,68.8,1,29.9,1,0,0
8/4/2003 8:00,30.1,1,69.1,1,30.2,1,0,0
8/4/2003 8:15,30,1,69.6,1,30.4,1,0,0
8/4/2003 8:30,29.7,1,70.3,1,30.6,1,0,0
8/4/2003 8:45,29.6,1,70.6,1,30.6,1,0,0
8/4/2003 9:00,29.6,1,71.1,1,30.5,1,0,0
8/4/2003 9:15,29.7,1,70.8,1,30.3,1,0,0
8/4/2003 9:30,29.8,1,71,1,30.3,1,0,0
8/4/2003 9:45,29.7,1,70,1,30.3,1,0,0
8/4/2003 10:00,29.9,1,69.5,1,30.3,1,0,0
8/4/2003 10:15,30.1,1,68.6,1,30.4,1,0,0
8/4/2003 10:30,30.2,1,67.6,1,30.5,1,0,0
8/4/2003 10:45,30.3,1,67.8,1,30.6,1,0,0
8/4/2003 11:00,30.4,1,67.9,1,30.6,1,0,0
8/4/2003 11:15,30.5,1,67.7,1,30.7,1,0,0
8/4/2003 11:30,30.6,1,67.5,1,30.8,1,0,0
8/4/2003 11:45,30.7,1,67.2,1,30.9,1,0,0
8/4/2003 12:00,30.7,1,66.8,1,30.9,1,0,0
8/4/2003 12:15,30.8,1,67.1,1,30.9,1,0,0
8/4/2003 12:30,30.9,1,66.9,1,30.9,1,0,0
8/4/2003 12:45,31,1,66.6,1,30.9,1,0,0
8/4/2003 13:00,31.1,1,66.8,1,30.9,1,0,0
8/4/2003 13:15,31.1,1,66.9,1,31.1,1,0,0
8/4/2003 13:30,31.3,1,66.1,1,31.1,1,0,0
8/4/2003 13:45,31.2,1,64.5,1,31.4,1,0,0
8/4/2003 14:00,30.5,1,57.6,1,31.5,1,0,0
8/4/2003 14:15,30.2,1,57.7,1,31.6,1,0,0
8/4/2003 14:30,29.7,1,50.6,1,31.6,1,0,0
8/4/2003 14:45,29.7,1,49.8,1,31.5,1,0,0
8/4/2003 15:00,29.5,1,50,1,31.5,1,0,0
8/4/2003 15:15,29.4,1,47.9,1,31.4,1,0,0
8/4/2003 15:30,29.3,1,48.7,1,31.4,1,0,0
8/4/2003 15:45,29.1,1,47.1,1,31.4,1,0,0
8/4/2003 16:00,29.3,1,57.1,1,31.4,1,0,0
8/4/2003 16:15,30.3,1,68.5,1,31,1,0,0
8/4/2003 16:30,30.4,1,68.5,1,30.8,1,0,0
8/4/2003 16:45,30.4,1,68.6,1,30.7,1,0,0
8/4/2003 17:00,30.3,1,69,1,30.6,1,0,0
8/4/2003 17:15,30.3,1,69.1,1,30.5,1,0,0
8/4/2003 17:30,30.3,1,69.4,1,30.5,1,0,0
8/4/2003 17:45,30.2,1,69.5,1,30.3,1,0,0
8/4/2003 18:00,30.1,1,70.2,1,30.1,1,0,0
8/4/2003 18:15,30,1,70.8,1,30,1,0,0
8/4/2003 18:30,29.9,1,71.6,1,29.9,1,0,0
8/4/2003 18:45,29.9,1,72.3,1,29.8,1,0,0
8/4/2003 19:00,29.7,1,73.3,1,29.6,1,0,0
8/4/2003 19:15,29.6,1,73.7,1,29.5,1,0,0
8/4/2003 19:30,29.4,1,74.2,1,29.4,1,0,0
8/4/2003 19:45,29.4,1,74.3,1,29.3,1,0,0
8/4/2003 20:00,29.2,1,75.1,1,29.2,1,0,0
8/4/2003 20:15,29.6,1,74,1,28.7,1,0,0
8/4/2003 20:30,29.3,1,60.7,1,28.1,1,0,0
8/4/2003 20:45,29.2,1,54.1,1,27.7,1,0,0
8/4/2003 21:00,29,1,51.3,1,27.4,1,0,0
8/4/2003 21:15,28.9,1,48.6,1,27.5,1,0,0
8/4/2003 21:30,28.8,1,48,1,27.7,1,0,0
8/4/2003 21:45,28.7,1,47.3,1,27.8,1,0,0
8/4/2003 22:00,28.5,1,46.8,1,27.9,1,0,0
8/4/2003 22:15,28.4,1,46.6,1,27.8,1,0,0
8/4/2003 22:30,28.4,1,46.7,1,27.8,1,0,0
8/4/2003 22:45,28.3,1,46.2,1,27.8,1,0,0
8/4/2003 23:00,28.2,1,46.2,1,27.8,1,0,0
8/4/2003 23:15,28.2,1,45.6,1,27.8,1,0,0
8/4/2003 23:30,28.1,1,45.8,1,27.8,1,0,0
8/4/2003 23:45,28,1,45.4,1,27.8,1,0,0
8/5/2003 0:00,28,1,46.7,1,27.7,1,0,0
8/5/2003 0:15,28.6,1,53.6,1,27.7,1,0,0
8/5/2003 0:30,29.2,1,55.4,1,27.7,1,0,0
8/5/2003 0:45,29.5,1,57.7,1,27.7,1,0,0
8/5/2003 1:00,29.5,1,61.6,1,27.8,1,0,0
8/5/2003 1:15,28.6,1,51.8,1,27.7,1,0,0
8/5/2003 1:30,28.3,1,45.6,1,27.7,1,0,0
8/5/2003 1:45,29,1,51.9,1,27.6,1,0,0
8/5/2003 2:00,29.3,1,52.8,1,27.6,1,0,0
8/5/2003 2:15,29.5,1,54.5,1,27.6,1,0,0
8/5/2003 2:30,29.6,1,55.5,1,27.6,1,0,0
8/5/2003 2:45,29.7,1,56.6,1,27.5,1,0,0
8/5/2003 3:00,29.8,1,57.6,1,27.5,1,0,0
8/5/2003 3:15,29.8,1,58.4,1,27.5,1,0,0
8/5/2003 3:30,29.9,1,59,1,27.9,1,0,0
8/5/2003 3:45,30,1,59.7,1,28.3,1,0,0
8/5/2003 4:00,30.1,1,60.4,1,28.5,1,0,0
8/5/2003 4:15,30.1,1,60.7,1,27.8,1,0,0
8/5/2003 4:30,30.1,1,61,1,27.3,1,0,0
8/5/2003 4:45,30.2,1,61.2,1,27.1,1,0,0
8/5/2003 5:00,30.2,1,61.4,1,27.1,1,0,0
8/5/2003 5:15,30.2,1,61.7,1,27.2,1,0,0
8/5/2003 5:30,30.3,1,62,1,27.5,1,0,0
8/5/2003 5:45,30.3,1,62.1,1,27.8,1,0,0
8/5/2003 6:00,30.3,1,62.4,1,28.1,1,0,0
8/5/2003 6:15,30.5,1,63.9,1,28.3,1,0,0
8/5/2003 6:30,29.9,1,60.3,1,28.5,1,0,0
8/5/2003 6:45,30.2,1,60.7,1,29.4,1,0,0
8/5/2003 7:00,30.4,1,61.4,1,30.1,1,0,0
8/5/2003 7:15,30.5,1,62,1,30.3,1,0,0
8/5/2003 7:30,29.5,1,72.6,1,30.6,1,0,0
8/5/2003 7:45,29.6,1,73.3,1,30.6,1,0,0
8/5/2003 8:00,29.9,1,72.1,1,30.5,1,0,0
8/5/2003 8:15,30.1,1,71.2,1,30.4,1,0,0
8/5/2003 8:30,30.2,1,70.9,1,30.7,1,0,0
8/5/2003 8:45,30.4,1,70.8,1,30.8,1,0,0
8/5/2003 9:00,30.5,1,70,1,30.7,1,0,0
8/5/2003 9:15,30.6,1,69.3,1,30.8,1,0,0
8/5/2003 9:30,30.8,1,68.8,1,31.1,1,0,0
8/5/2003 9:45,30.9,1,68.7,1,31.3,1,0,0
8/5/2003 10:00,31,1,68.5,1,31.5,1,0,0
8/5/2003 10:15,31.1,1,68.1,1,31.5,1,0,0
8/5/2003 10:30,31.1,1,68,1,31.6,1,0,0
8/5/2003 10:45,31.3,1,68,1,31.6,1,0,0
8/5/2003 11:00,31.4,1,67.3,1,31.6,1,0,0
8/5/2003 11:15,31.5,1,66.7,1,31.7,1,0,0
8/5/2003 11:30,31.6,1,66.6,1,31.7,1,0,0
8/5/2003 11:45,31.8,1,66,1,31.7,1,0,0
8/5/2003 12:00,31.9,1,65.3,1,31.8,1,0,0
8/5/2003 12:15,32,1,64.6,1,31.8,1,0,0
8/5/2003 12:30,32.1,1,64.1,1,31.9,1,0,0
8/5/2003 12:45,32.2,1,64.1,1,31.9,1,0,0
8/5/2003 13:00,32.3,1,63.4,1,32,1,0,0
8/5/2003 13:15,32.4,1,62.4,1,32,1,0,0
8/5/2003 13:30,32.5,1,63.9,1,32.1,1,0,0
8/5/2003 13:45,32.4,1,64.2,1,32.3,1,0,0
8/5/2003 14:00,32.3,1,64.2,1,32.4,1,0,0
8/5/2003 14:15,32.4,1,63.9,1,32.5,1,0,0
8/5/2003 14:30,32.3,1,62.8,1,32.5,1,0,0
8/5/2003 14:45,31.9,1,63.6,1,32.4,1,0,0
8/5/2003 15:00,31.7,1,65,1,32.3,1,0,0
8/5/2003 15:15,31.6,1,65.4,1,32.2,1,0,0
8/5/2003 15:30,31.4,1,66.4,1,31.9,1,0,0
8/5/2003 15:45,31.4,1,67.4,1,31.2,1,0,0
8/5/2003 16:00,31.3,1,67,1,30.5,1,0,0
8/5/2003 16:15,30.9,1,65.4,1,29.6,1,0,0
8/5/2003 16:30,30.3,1,66.1,1,28.4,1,0,0
8/5/2003 16:45,30.2,1,67.6,1,27.5,1,0,0
8/5/2003 17:00,30.9,1,66.2,1,27.3,1,0,0
8/5/2003 17:15,30,1,68.4,1,26.4,1,0,0
8/5/2003 17:30,30.7,1,66.5,1,26.3,1,0,0
8/5/2003 17:45,31,1,64.3,1,25.8,1,0,0
8/5/2003 18:00,31.1,1,63.7,1,26.1,1,0,0
8/5/2003 18:15,30.4,1,59,1,27.3,1,0,0
8/5/2003 18:30,29.9,1,56.1,1,27.9,1,0,0
8/5/2003 18:45,29.8,1,55.4,1,28.2,1,0,0
8/5/2003 19:00,29.6,1,50.9,1,28.5,1,0,0
8/5/2003 19:15,29.3,1,49.6,1,28.7,1,0,0
8/5/2003 19:30,29.7,1,53.8,1,28.9,1,0,0
8/5/2003 19:45,29.4,1,51.2,1,29,1,0,0
8/5/2003 20:00,29.8,1,54.6,1,28.3,1,0,0
8/5/2003 20:15,29.3,1,49,1,27.7,1,0,0
8/5/2003 20:30,29.2,1,46.1,1,27.5,1,0,0
8/5/2003 20:45,29.1,1,45.2,1,27.4,1,0,0
8/5/2003 21:00,29,1,45.1,1,27.3,1,0,0
8/5/2003 21:15,28.9,1,45,1,27.2,1,0,0
8/5/2003 21:30,28.8,1,44.3,1,27.2,1,0,0
8/5/2003 21:45,28.7,1,43.6,1,27.1,1,0,0
8/5/2003 22:00,28.6,1,43.3,1,27.1,1,0,0
8/5/2003 22:15,28.5,1,43.3,1,27,1,0,0
8/5/2003 22:30,28.4,1,43.2,1,27,1,0,0
8/5/2003 22:45,28.4,1,44.6,1,27,1,0,0
8/5/2003 23:00,28.3,1,43.9,1,27,1,0,0
8/5/2003 23:15,28.2,1,43.3,1,27,1,0,0
8/5/2003 23:30,28.7,1,48.8,1,27,1,0,0
8/5/2003 23:45,29.5,1,50.6,1,26.9,1,0,0
8/6/2003 0:00,29.7,1,53.6,1,27,1,0,0
8/6/2003 0:15,29.9,1,55.4,1,27,1,0,0
8/6/2003 0:30,30,1,57.3,1,27,1,0,0
8/6/2003 0:45,30.2,1,58.6,1,27,1,0,0
8/6/2003 1:00,29.7,1,57.1,1,27.1,1,0,0
8/6/2003 1:15,29,1,49.7,1,27.1,1,0,0
8/6/2003 1:30,28.6,1,44.5,1,27.1,1,0,0
8/6/2003 1:45,28.2,1,43.6,1,27.1,1,0,0
8/6/2003 2:00,28,1,45.5,1,27.1,1,0,0
8/6/2003 2:15,27.8,1,44.8,1,27.1,1,0,0
8/6/2003 2:30,28.8,1,48.3,1,27.1,1,0,0
8/6/2003 2:45,28,1,45.9,1,27.1,1,0,0
8/6/2003 3:00,27.7,1,44.1,1,27.1,1,0,0
8/6/2003 3:15,27.5,1,43.1,1,27,1,0,0
8/6/2003 3:30,27.4,1,42.8,1,27,1,0,0
8/6/2003 3:45,27.2,1,42.8,1,27.6,1,0,0
8/6/2003 4:00,27.1,1,42.6,1,28,1,0,0
8/6/2003 4:15,27,1,42.6,1,28.4,1,0,0
8/6/2003 4:30,26.8,1,42.6,1,28.6,1,0,0
8/6/2003 4:45,26.8,1,42.7,1,28.6,1,0,0
8/6/2003 5:00,26.7,1,42.4,1,27.8,1,0,0
8/6/2003 5:15,26.6,1,42.6,1,27.5,1,0,0
8/6/2003 5:30,27.9,1,45.3,1,27.3,1,0,0
8/6/2003 5:45,28.5,1,49.5,1,27.2,1,0,0
8/6/2003 6:00,28.7,1,50.4,1,27.2,1,0,0
8/6/2003 6:15,28.9,1,51.9,1,27.2,1,0,0
8/6/2003 6:30,29.1,1,53.1,1,27.2,1,0,0
8/6/2003 6:45,29.2,1,53.9,1,27.2,1,0,0
8/6/2003 7:00,29.3,1,54.7,1,27.2,1,0,0
8/6/2003 7:15,29.5,1,55.4,1,27.3,1,0,0
8/6/2003 7:30,29.6,1,56,1,27.4,1,0,0
8/6/2003 7:45,29.7,1,61.5,1,27.7,1,0,0
8/6/2003 8:00,29.8,1,64.3,1,27.8,1,0,0
8/6/2003 8:15,29.7,1,65,1,27.8,1,0,0
8/6/2003 8:30,29.7,1,65.7,1,27.7,1,0,0
8/6/2003 8:45,29.9,1,65.4,1,28,1,0,0
8/6/2003 9:00,29.8,1,66.5,1,28.2,1,0,0
8/6/2003 9:15,30.1,1,64.5,1,28.4,1,0,0
8/6/2003 9:30,30.2,1,64.7,1,28.8,1,0,0
8/6/2003 9:45,30.3,1,64.8,1,29.2,1,0,0
8/6/2003 10:00,30.4,1,64.8,1,29.6,1,0,0
8/6/2003 10:15,30.5,1,64.8,1,29.9,1,0,0
8/6/2003 10:30,30.7,1,64.7,1,30.1,1,0,0
8/6/2003 10:45,30.8,1,64.9,1,30.3,1,0,0
8/6/2003 11:00,30.9,1,64.7,1,30.4,1,0,0
8/6/2003 11:15,30.9,1,64.5,1,30.5,1,0,0
8/6/2003 11:30,30.9,1,64.4,1,30.5,1,0,0
8/6/2003 11:45,30.8,1,63.8,1,30.5,1,0,0
8/6/2003 12:00,30.2,1,56.4,1,30.7,1,0,0
8/6/2003 12:15,30.2,1,51.2,1,30.8,1,0,0
8/6/2003 12:30,29.8,1,45.8,1,30.8,1,0,0
8/6/2003 12:45,29.4,1,42.7,1,30.8,1,0,0
8/6/2003 13:00,29.1,1,39.6,1,30.8,1,0,0
8/6/2003 13:15,29.3,1,45.9,1,30.8,1,0,0
8/6/2003 13:30,28.9,1,41.5,1,30.7,1,0,0
8/6/2003 13:45,28.8,1,43.2,1,30.7,1,0,0
8/6/2003 14:00,28.9,1,42.2,1,30.8,1,0,0
8/6/2003 14:15,28.8,1,42.1,1,30.9,1,0,0
8/6/2003 14:30,28.7,1,40.4,1,30.8,1,0,0
8/6/2003 14:45,28.4,1,38.8,1,30.7,1,0,0
8/6/2003 15:00,28.5,1,41.1,1,30.5,1,0,0
8/6/2003 15:15,28.4,1,42,1,30.5,1,0,0
8/6/2003 15:30,29.4,1,68,1,30.2,1,0,0
8/6/2003 15:45,29.7,1,68.7,1,30,1,0,0
8/6/2003 16:00,29.5,1,68.6,1,29.8,1,0,0
8/6/2003 16:15,29.7,1,68,1,29.6,1,0,0
8/6/2003 16:30,29.8,1,68.1,1,29.6,1,0,0
8/6/2003 16:45,29.9,1,67.9,1,29.6,1,0,0
8/6/2003 17:00,30.1,1,67.2,1,29.5,1,0,0
8/6/2003 17:15,30.2,1,67.1,1,29.5,1,0,0
8/6/2003 17:30,30.3,1,67,1,29.5,1,0,0
8/6/2003 17:45,30.2,1,67.8,1,29.5,1,0,0
8/6/2003 18:00,30.3,1,67.5,1,29.5,1,0,0
8/6/2003 18:15,30.4,1,69.4,1,29.4,1,0,0
8/6/2003 18:30,29.8,1,59.6,1,29.4,1,0,0
8/6/2003 18:45,29.6,1,55.9,1,29.5,1,0,0
8/6/2003 19:00,29.4,1,51.2,1,29.5,1,0,0
8/6/2003 19:15,29.1,1,48.7,1,29.5,1,0,0
8/6/2003 19:30,29.2,1,57.1,1,29.4,1,0,0
8/6/2003 19:45,29.3,1,54.8,1,29.4,1,0,0
8/6/2003 20:00,28.8,1,51.1,1,29.4,1,0,0
8/6/2003 20:15,28.9,1,52,1,28.5,1,0,0
8/6/2003 20:30,28.7,1,47.2,1,28,1,0,0
8/6/2003 20:45,28.6,1,45.2,1,27.7,1,0,0
8/6/2003 21:00,28.5,1,43.7,1,27.6,1,0,0
8/6/2003 21:15,28.3,1,43.1,1,27.5,1,0,0
8/6/2003 21:30,28.3,1,42.7,1,27.3,1,0,0
8/6/2003 21:45,28.1,1,42.8,1,27.3,1,0,0
8/6/2003 22:00,28,1,41.9,1,27.2,1,0,0
8/6/2003 22:15,27.9,1,42.8,1,27.2,1,0,0
8/6/2003 22:30,27.8,1,42.5,1,27.1,1,0,0
8/6/2003 22:45,27.8,1,43,1,27.1,1,0,0
8/6/2003 23:00,27.8,1,42.9,1,27.1,1,0,0
8/6/2003 23:15,28,1,48.7,1,27,1,0,0
8/6/2003 23:30,28.1,1,52.9,1,27,1,0,0
8/6/2003 23:45,28.2,1,50.3,1,27,1,0,0
8/7/2003 0:00,28.1,1,49.3,1,27,1,0,0
8/7/2003 0:15,28,1,47.8,1,26.9,1,0,0
8/7/2003 0:30,28,1,46.6,1,26.9,1,0,0
8/7/2003 0:45,28,1,45.6,1,26.8,1,0,0
8/7/2003 1:00,27.9,1,45.2,1,26.8,1,0,0
8/7/2003 1:15,27.9,1,45.1,1,26.7,1,0,0
8/7/2003 1:30,28.8,1,49.6,1,26.7,1,0,0
8/7/2003 1:45,29.1,1,51.2,1,26.7,1,0,0
8/7/2003 2:00,29.2,1,52.5,1,26.7,1,0,0
8/7/2003 2:15,29.4,1,53.5,1,26.7,1,0,0
8/7/2003 2:30,29.5,1,54.4,1,26.7,1,0,0
8/7/2003 2:45,29.5,1,55,1,26.6,1,0,0
8/7/2003 3:00,29.7,1,55.7,1,26.6,1,0,0
8/7/2003 3:15,29.7,1,56.2,1,26.6,1,0,0
8/7/2003 3:30,29.8,1,56.7,1,26.6,1,0,0
8/7/2003 3:45,29.8,1,56.9,1,26.6,1,0,0
8/7/2003 4:00,29.9,1,57.3,1,26.5,1,0,0
8/7/2003 4:15,29.9,1,57.7,1,26.5,1,0,0
8/7/2003 4:30,30,1,58,1,26.6,1,0,0
8/7/2003 4:45,30,1,58.2,1,26.5,1,0,0
8/7/2003 5:00,30.1,1,58.4,1,26.5,1,0,0
8/7/2003 5:15,30.1,1,58.7,1,26.5,1,0,0